Showing default

COSMOS 2460 (GLONASS), 36402

Orbit data source: Space-Track

COSMOS 2460 (GLONASS), 36402 is a Commonwealth of Independent States-origin payload satellite in MEO that was launched on Mon, 01 Mar 2010 UTC via a PROTON-M/DM-2 launch vehicle from the Tyuratam Missile And Space Complex (TTMTR). Payload-class satellites include a variety of spacecraft equipped with specific instruments for various scientific and technological missions. These include communications satellites like Starlink; space stations such as the ISS; scientific satellites like the Hubble; Earth observation satellites from companies like Planet Labs, Umbra, and HawkEye 360; GPS; miniature CubeSats for education and research; and military/defense satellites.

Loading next visibility...
Identifier
36402, 2010-007C
Orbit
MEO
Country
Flag of CISCIS
Related business
Manufacturer
Resehetnev ISS
Mission
Operational Defense Navigation
Bus & Motor
URAGAN, Unknown motor
Mass
1,450 kg wet, ~1,200 kg dry
Launch date (UTC)
2010-03-01 (16 years ago)
Launch vehicle
PROTON-M/DM-2
Launch site
Tyuratam Missile And Space Complex (TTMTR)
Object type
Payload
Rocket body
Debris
Shape & HBR
Cyl + 1 Ant + 2 Pan, 3.9 m
Radar Cross Section
8.467 m², Large (>1 m²)

Expand to show TLE details & history
Last TLE update: 2 days ago

TLE from 2 days ago
0 COSMOS 2460 (GLONASS)
1 36402U 10007C   25339.40948948 -.00000048  00000-0  00000-0 0  9994
2 36402  65.5337 321.0210 0002740 272.5603 131.8824  2.13106027122603
Epoch: 2025-12-05T09:49Z
TLE epoch observation values (Epoch: 2025-12-05T09:49:39.891Z)
Latitude
39.66426°
Longitude
121.28462°
Altitude
19,138.391 km
Speed
3.953 km/s
True Right ascension
22h 52m 36s
True Declination
39° 37' 01"
Sunlit
Object was in daylight at epoch
Visualization orbit readout
Latitude
Unknown
Longitude
Unknown
Altitude
Unknown
Speed
Unknown
Apparent Right ascension
Unknown
Apparent Declination
Unknown
Sunlit
N/A
Visualization observer readout
Local Sidereal Time
04:45:10
Azimuth
Unknown
Elevation
Unknown
Doppler factor
Unknown
Orbital elements
Apogee altitude
19,136.152 km
Perigee altitude
19,122.174 km
Semi-major axis
25,507.3 km
Eccentricity
0.00027
Inclination
65.5337°
RAAN
321.021°
Arg. of periapsis
272.5603°
True anomaly
131.90577°
Mean anomaly
131.8824°
Eccentric anomaly
131.89409°
Mean motion
0.53278 °/min
Orbital period
675.7 mins
BSTAR
0
Loading maneuver chart data...
Computing Atmospheric mass density...
Loading historical data...
Loading historical data...
Loading historical data...
Loading historical data...
Loading historical data...
Loading historical data...
Loading historical data...

Documentation

Showing up to 5 results
|